[[{"header":{"parameterUnit":"m.s-1","parameterCategory":1,"la1":30.2991,"la2":30.254,"lo1":-89.0895,"lo2":-89.0444,"dy":0.0017,"dx":0.0017,"nx":28,"ny":28,"refTime":"2025-11-13T09:00:00:Z","depth":0,"parameterNumber":2,"parameterNumberName":"U-component_of_WINDS"},"data":[0,0,0,0,0,0,0,0,0,0,0,0,0,0,0,0,0,0,0,0,0,0,0,0,0,0,0,0,0,0,0,0,0,0,0,0,0,0,0,0,0,0,0,0,0,0,0,0,0,0,0,0,0,0,0,0,0,0,1.9899,1.99,0,2.0009,2.001,2.0011,1.9987,1.9985,1.9983,1.9981,2.0092,2.0097,2.0101,0,0,0,0,0,0,0,0,0,0,0,0,0,1.9666,1.9671,1.9899,1.99,1.9902,2.0008,2.001,2.0011,1.9987,1.9985,1.9982,1.998,2.009,2.0096,2.0102,0,0,0,0,0,0,0,0,0,0,0,0,0,1.9771,1.9672,1.9899,1.9902,1.9904,2.0008,2.001,2.0012,1.9988,1.9985,1.9981,1.9979,2.0088,2.0095,2.0103,2.021,0,0,2.0125,2.0128,0,0,0,0,0,0,0,0,1.9765,1.9779,1.99,1.9902,1.9904,1.9981,1.9969,2.0078,1.9988,1.9956,1.9981,1.9977,2.0057,2.0067,2.0094,2.0215,2.022,2.0126,2.013,2.0133,2.0135,0,0,0,0,0,0,0,1.9758,1.9775,1.9942,1.9902,1.9904,1.9898,1.9909,1.9989,2.0022,1.9958,1.9957,1.997,2.0058,2.0087,2.0097,2.0221,2.0126,2.0132,2.0137,2.0139,2.0433,2.0436,0,0,0,0,0,0,1.9749,1.9769,1.9939,1.9945,1.9826,1.9905,1.9917,1.9959,2.0022,2.0028,1.9973,1.9969,2.0076,2.0088,2.0101,2.0228,2.0133,2.014,2.0144,2.0429,2.0434,2.0437,0,0,0,0,0,0,1.9744,1.9765,1.9934,1.9857,1.9878,1.9912,1.9959,1.9963,1.9993,2.0032,2.0038,1.9997,2.0074,2.009,2.0182,2.0232,2.0143,2.015,2.0425,2.0431,2.0435,2.0485,0,0,0,0,0,0,1.9738,1.9763,1.9804,1.9858,1.9882,2.0015,1.9962,1.9967,2.0005,2.0001,2.0057,2.0063,2.0073,2.0171,2.019,2.024,2.0156,2.0421,2.0428,2.0434,2.0479,2.0491,2.0501,0,0,0,0,0,1.9729,1.9814,1.9807,1.9827,1.9935,2.0018,2.0031,2.0042,2.001,2.0051,2.0076,2.0061,2.0224,2.0181,2.0201,2.0255,2.0418,2.0426,2.0433,2.0474,2.0489,2.0501,0,0,0,0,0,0,1.9765,1.9821,1.9813,1.9918,1.9963,2.0013,2.0066,2.0057,2.0113,2.0106,2.0117,2.0129,2.0223,2.0248,2.02,2.036,2.0316,2.0328,2.034,2.0354,2.0365,2.0356,2.0162,0,0,0,0,0,1.9785,1.9849,1.9894,1.9982,2.0005,2.0032,2.0068,2.0072,2.012,2.0138,2.0171,2.0217,2.0278,2.0318,2.0377,2.0483,2.0494,2.053,2.0541,2.055,2.056,2.0616,2.0632,2.0462,2.0462,2.0462,0,0,1.9827,1.9866,1.9905,1.999,2.0025,2.009,2.0048,2.0118,2.0166,2.0149,2.0237,2.0263,2.0315,2.0414,2.0459,2.0438,2.0609,2.056,2.0567,2.0571,2.0625,2.0641,2.0656,2.0468,2.0467,2.0466,0,0,1.9936,1.9973,2.0049,2.0085,2.014,2.0157,2.0175,2.0227,2.0243,2.0332,2.032,2.0377,2.0483,2.0519,2.0552,2.0674,2.0662,2.0694,2.0751,2.0806,2.0819,2.0831,2.0873,2.0888,2.0703,2.0704,2.0704,0,1.9981,2.0078,2.0089,2.016,2.0197,2.0185,2.0262,2.0297,2.0367,2.0393,2.0368,2.05,2.0534,2.0641,2.067,2.0698,2.0718,2.0686,2.0817,2.0829,2.084,2.0879,2.0895,2.0707,2.0706,2.0706,2.0706,0,2.013,2.0197,2.0252,2.032,2.0364,2.0437,2.0458,2.0501,2.0501,2.0521,2.0611,2.0652,2.0718,2.0744,2.0745,2.085,2.0835,2.0814,2.0769,2.0859,2.0896,2.0912,2.0712,2.071,2.0709,2.0709,0,0,2.0263,2.0336,2.0356,2.0386,2.0445,2.0497,2.057,2.0635,2.067,2.0719,2.0779,2.0869,2.0849,2.0886,2.0892,2.094,2.1032,2.0912,2.0914,2.0931,2.1148,2.1162,2.118,2.1025,2.1028,2.103,2.1143,0,2.0376,2.0503,2.0515,2.0629,2.0691,2.0681,2.0744,2.0786,2.0806,2.0861,2.0883,2.0946,2.0916,2.0938,2.0986,2.101,2.1075,2.1003,2.1079,2.1081,2.1064,2.12,2.1215,2.1319,2.1158,2.116,2.1162,0,2.0524,2.0577,2.0697,2.0746,2.0773,2.0829,2.0888,2.0941,2.0989,2.1,2.1042,2.104,2.1114,2.1068,2.1169,2.1119,2.1151,2.1168,2.1172,2.1178,2.1126,2.1207,2.1353,2.1368,2.1186,2.1184,2.1182,0,2.0606,2.0708,2.0793,2.0819,2.0879,2.0919,2.0946,2.0991,2.1028,2.108,2.1105,2.1165,2.1197,2.1243,2.1258,2.1224,2.1358,2.1313,2.1367,2.1367,2.1394,2.1392,2.1546,2.1419,2.1419,2.1418,2.1418,0,2.0728,2.0802,2.083,2.0882,2.0964,2.0976,2.1057,2.1081,2.1121,2.1177,2.1173,2.1225,2.1242,2.1298,2.131,2.139,2.1405,2.1415,2.1417,2.1415,2.1413,2.1434,2.1426,2.1423,2.1422,2.1421,2.142,0,2.0833,2.0855,2.0946,2.0996,2.101,2.1068,2.111,2.116,2.1179,2.125,2.1267,2.1298,2.1362,2.1382,2.146,2.1468,2.1561,2.1558,2.1545,2.1545,2.1597,2.1591,2.1767,2.179,2.1651,2.1652,2.1653,0,2.0909,2.0965,2.1021,2.1058,2.1086,2.1146,2.1185,2.1199,2.1239,2.1298,2.134,2.1404,2.1455,2.1559,2.1588,2.1647,2.1644,2.1702,2.1652,2.1647,2.1642,2.1637,2.1642,2.171,2.1711,2.1713,2.1714,0,2.104,2.1048,2.1104,2.1163,2.1209,2.1257,2.1302,2.1333,2.1354,2.1399,2.1465,2.1505,2.1585,2.1648,2.1708,2.1735,2.1727,2.1729,2.1744,2.1741,2.173,2.1734,2.1568,2.1725,2.1723,2.1723,2.1722,2.1722,2.1131,2.118,2.1226,2.1288,2.1324,2.1367,2.1415,2.1441,2.1496,2.1562,2.1567,2.1638,2.1684,2.1764,2.1794,2.1849,2.1832,2.1855,2.186,2.1865,2.1868,2.1723,2.186,2.186,2.186,2.186,2.1859,0,2.126,2.1289,2.1346,2.141,2.1458,2.1448,2.1498,2.1539,2.1601,2.1645,2.1696,2.1771,2.1832,2.1866,2.1926,2.1964,2.1962,2.1979,2.1975,2.1981,2.1881,2.186,2.1979,2.1979,2.1979,2.1979,2.1979,2.1979,2.1333,2.1414,2.1427,2.1526,2.1555,2.1624,2.1654,2.1692,2.1727,2.1811,2.1862,2.1883,2.1923,2.1986,2.2041,2.2049,2.2071,2.209,2.2096,2.2001,2.1988,2.1977,2.1957,2.2095,2.2095,2.2191,2.2192,2.2193]},{"header":{"parameterUnit":"m.s-1","parameterCategory":1,"la1":30.2991,"la2":30.254,"lo1":-89.0895,"lo2":-89.0444,"dy":0.0017,"dx":0.0017,"nx":28,"ny":28,"refTime":"2025-11-13T09:00:00:Z","depth":0,"parameterNumber":3,"parameterNumberName":"V-component_of_WINDS"},"data":[0,0,0,0,0,0,0,0,0,0,0,0,0,0,0,0,0,0,0,0,0,0,0,0,0,0,0,0,0,0,0,0,0,0,0,0,0,0,0,0,0,0,0,0,0,0,0,0,0,0,0,0,0,0,0,0,0,0,2.3483,2.3484,0,2.3525,2.3525,2.3526,2.3462,2.346,2.3458,2.3456,2.3499,2.3502,2.3505,0,0,0,0,0,0,0,0,0,0,0,0,0,2.3346,2.3349,2.3483,2.3484,2.3484,2.3525,2.3525,2.3526,2.3463,2.346,2.3457,2.3455,2.3498,2.3502,2.3505,0,0,0,0,0,0,0,0,0,0,0,0,0,2.3399,2.335,2.3483,2.3457,2.3456,2.3525,2.3525,2.3526,2.3463,2.346,2.3457,2.3454,2.3497,2.3501,2.3506,2.3602,0,0,2.3521,2.3523,0,0,0,0,0,0,0,0,2.3396,2.3404,2.3461,2.3459,2.3457,2.3485,2.3493,2.3552,2.3464,2.3461,2.3456,2.3452,2.3497,2.3501,2.3517,2.3604,2.3606,2.3521,2.3524,2.3526,2.3527,0,0,0,0,0,0,0,2.3392,2.3402,2.35,2.3462,2.346,2.3443,2.3447,2.3504,2.3497,2.3461,2.3456,2.3462,2.3495,2.3512,2.3517,2.3606,2.3521,2.3525,2.3528,2.353,2.3772,2.3775,0,0,0,0,0,0,2.3392,2.3399,2.3498,2.3501,2.3418,2.3448,2.3453,2.348,2.3496,2.3495,2.3465,2.3459,2.3506,2.3512,2.3518,2.363,2.3526,2.353,2.3533,2.3768,2.3773,2.3776,0,0,0,0,0,0,2.3389,2.3401,2.3497,2.3449,2.346,2.3454,2.3485,2.3482,2.3499,2.3499,2.3497,2.3483,2.3503,2.3512,2.3581,2.3631,2.3533,2.3537,2.3764,2.377,2.3775,2.3856,0,0,0,0,0,0,2.3386,2.3401,2.3438,2.345,2.3462,2.356,2.3488,2.3485,2.3507,2.35,2.3516,2.3516,2.3501,2.3574,2.3586,2.3636,2.3541,2.376,2.3767,2.3773,2.3849,2.3864,2.3876,0,0,0,0,0,2.3381,2.346,2.344,2.3453,2.3509,2.3563,2.357,2.3552,2.3512,2.3548,2.3548,2.3515,2.3624,2.3582,2.3594,2.3647,2.3756,2.3765,2.3772,2.3843,2.3861,2.3876,0,0,0,0,0,0,2.3455,2.3461,2.3439,2.3525,2.3543,2.3552,2.3598,2.3571,2.3602,2.3594,2.357,2.3574,2.3648,2.3654,2.3608,2.3739,2.3683,2.3694,2.3733,2.375,2.3763,2.376,2.3545,0,0,0,0,0,2.3481,2.3524,2.3527,2.3602,2.3613,2.3604,2.3626,2.3611,2.3629,2.3637,2.3642,2.3661,2.3698,2.3724,2.376,2.3849,2.3851,2.3891,2.3905,2.3916,2.3926,2.3971,2.3989,2.3803,2.3803,2.3802,0,0,2.3535,2.3544,2.3573,2.3617,2.363,2.3674,2.3611,2.3661,2.3694,2.3644,2.371,2.3714,2.3733,2.3813,2.3848,2.382,2.3977,2.3926,2.3935,2.3939,2.3981,2.3999,2.4015,2.3808,2.3807,2.3806,0,0,2.3657,2.3669,2.3732,2.3745,2.3765,2.3758,2.3773,2.3785,2.3785,2.385,2.3813,2.3851,2.3918,2.3933,2.3949,2.4074,2.4044,2.4086,2.4157,2.4202,2.4216,2.4229,2.4272,2.4288,2.4095,2.4095,2.4096,0,2.3723,2.3789,2.3767,2.382,2.3839,2.3795,2.3858,2.3872,2.3902,2.3917,2.3885,2.3966,2.3976,2.4057,2.4087,2.4102,2.4118,2.4084,2.4216,2.4229,2.424,2.4281,2.4298,2.41,2.41,2.4099,2.4099,0,2.3868,2.3914,2.3962,2.3991,2.4016,2.4074,2.406,2.4087,2.4069,2.4065,2.413,2.4141,2.4176,2.4194,2.4177,2.4273,2.4254,2.422,2.4163,2.4263,2.4301,2.4317,2.4107,2.4106,2.4104,2.4103,0,0,2.4039,2.4054,2.4072,2.4084,2.4101,2.4136,2.419,2.4224,2.4248,2.4269,2.4313,2.437,2.4337,2.4355,2.4339,2.4378,2.4474,2.4338,2.4338,2.4363,2.4578,2.4604,2.4623,2.4455,2.4457,2.446,2.4576,0,2.416,2.4254,2.4235,2.4326,2.4368,2.4325,2.4372,2.4387,2.4384,2.4418,2.4415,2.4455,2.4409,2.442,2.4457,2.4455,2.4517,2.4446,2.4495,2.4497,2.4491,2.4643,2.4671,2.4781,2.4591,2.4594,2.4596,0,2.4314,2.434,2.4436,2.4444,2.446,2.4503,2.4532,2.4565,2.458,2.4575,2.4595,2.457,2.4623,2.4565,2.4637,2.4589,2.4607,2.4609,2.4612,2.4616,2.4552,2.465,2.4815,2.4832,2.4619,2.4617,2.4616,0,2.4428,2.4488,2.4552,2.4563,2.4575,2.4605,2.4611,2.4623,2.4644,2.4669,2.4682,2.4713,2.473,2.4753,2.4737,2.4697,2.4811,2.4752,2.4807,2.4808,2.4834,2.4832,2.5003,2.4846,2.4846,2.4846,2.4845,0,2.4565,2.4625,2.4603,2.4643,2.4708,2.4684,2.4749,2.475,2.476,2.4799,2.4764,2.48,2.4777,2.4811,2.4799,2.4859,2.4867,2.4864,2.486,2.4867,2.4867,2.4878,2.487,2.485,2.4849,2.4848,2.4847,0,2.4704,2.4692,2.4759,2.4763,2.4766,2.4813,2.4817,2.4853,2.4846,2.4895,2.4905,2.4895,2.4933,2.4919,2.4961,2.4952,2.5028,2.5015,2.5023,2.502,2.5075,2.507,2.526,2.5283,2.5111,2.5113,2.5114,0,2.4793,2.4837,2.4846,2.4868,2.4877,2.4914,2.4935,2.4913,2.4935,2.4955,2.4988,2.5023,2.505,2.5113,2.5109,2.514,2.5126,2.519,2.5131,2.5136,2.5126,2.5124,2.5127,2.5203,2.5205,2.5206,2.5208,0,2.495,2.4941,2.4972,2.5,2.5025,2.5047,2.5065,2.5086,2.5064,2.5091,2.513,2.515,2.5191,2.5226,2.5253,2.5258,2.5229,2.5226,2.524,2.5248,2.5251,2.5249,2.5055,2.5222,2.5221,2.522,2.5219,2.5218,2.5066,2.5102,2.5113,2.5149,2.516,2.5177,2.521,2.5207,2.5239,2.527,2.5255,2.5299,2.531,2.5343,2.5352,2.5386,2.5361,2.5382,2.5387,2.5393,2.5399,2.5245,2.5391,2.539,2.539,2.539,2.5389,0,2.522,2.5224,2.5257,2.5283,2.531,2.5279,2.5297,2.5322,2.5361,2.5374,2.5401,2.5443,2.5476,2.5474,2.5504,2.5531,2.5519,2.554,2.5538,2.5539,2.542,2.5405,2.555,2.555,2.5549,2.5549,2.5549,2.5549,2.5304,2.5364,2.5356,2.5421,2.5424,2.5467,2.5479,2.5495,2.5505,2.5554,2.5581,2.5579,2.5585,2.5615,2.5644,2.5642,2.5654,2.5681,2.5674,2.5563,2.5548,2.5532,2.5517,2.5684,2.5684,2.579,2.5791,2.5791]}]]